sat.trackr.live / text

‹ back to catalog

STARLINK-35052

NORAD 65540 · 2025-200W

PAYLOAD ACTIVE UNKNOWN

§ Identity

Operator
Country
US
Launch date
2025-09-06
Launch site
AFWTR
Launch vehicle
Mass (kg)
RCS (m²)

Purposes: comms

External: N2YO · Heavens-Above · Gunter

§ Orbital elements

Epoch: 2026-05-25T03:01:46.068960Z

Period
95.64 min
Inclination
97.4489°
Eccentricity
0.0002669
Mean motion
15.05658070 rev/d
Perigee alt
547.6 km
Apogee alt
551.3 km
Semi-major
6,927.6 km
B*
2.9585e-4
RAAN
214.7962°
Arg perigee
131.1050°
Mean anomaly
229.0408°
Rev number
4,055

§ Raw data

STARLINK-350521 65540U 25200W   26145.12622765  .00004214  00000+0  29585-3 0  99902 65540  97.4489 214.7962 0002669 131.1050 229.0408 15.05658070 40554

JSON: /api/v1/satellites/65540 · /tle

For live sub-satellite position, see the globe view (requires WebGL).

§ Visibility from observer

Set your observer location to see the next 7 days of passes ≥ 10°. The values pass through the URL so the page stays shareable.

No JS? Fill the form by hand. The geolocation button needs JavaScript.